Regional Weather Roundup
Issued by NWS Cleveland, OH

Home | Current Version | Previous Version | Graphics & Text | Print | Product List | Glossary On
Versions: 1 2 3 4 5 6 7 8 9 10 11 12 13 14 15 16 17 18 19 20 21 22 23 24 25 26 27 28 29 30 31 32 33 34 35 36 37 38 39 40 41 42 43 44 45 46 47 48 49 50
000
ASUS41 KCLE 252302
RWRCLE
OHIO REGIONAL WEATHER ROUNDUP
NATIONAL WEATHER SERVICE CLEVELAND, OH
700 PM EDT SAT APR 25 2015

NOTE: "FAIR" INDICATES FEW OR NO CLOUDS BELOW 12,000 FEET WITH NO
SIGNIFICANT WEATHER AND/OR OBSTRUCTIONS TO VISIBILITY.

OHZ001>008-015>018-024>027-034-035-043-044-260000-
   NORTHWEST OHIO

CITY           SKY/WX    TMP DP  RH WIND       PRES   REMARKS
DEFIANCE       CLOUDY    44  35  70 E12       29.75F
FINDLAY        LGT RAIN  41  34  76 NE12      29.76F
TOLEDO EXPRESS CLOUDY    45  28  51 NE12      29.78F
TOLEDO EXEC    CLOUDY    45  25  45 NE12      29.80F
LIMA           LGT RAIN  41  38  89 NE14      29.72F FOG
$$

OHZ009>014-019>023-028>033-038-089-260000-
   NORTHEAST OHIO

CITY           SKY/WX    TMP DP  RH WIND       PRES   REMARKS
CLE-HOPKINS    CLOUDY    42  26  53 NE9       29.80R
CLE-LAKEFRONT  PTSUNNY   44  29  55 NE20G26   29.76F
CUY CO. ARPT   PTSUNNY   48  28  46 NE16      29.77R
LORAIN-ELYRIA  CLOUDY    41  25  53 NE12      29.78R
ASHTABULA      MOSUNNY   45  22  40 N7        29.78R
AKRON-CANTON   CLOUDY    51  23  33 NE7       29.72S
WOOSTER        CLOUDY    47  28  47 N10       29.74R
MANSFIELD      LGT RAIN  44  32  62 N9        29.75R
YOUNGSTOWN     PTSUNNY   53  21  28 N10       29.71S
$$

OHZ042-051>053-060>062-070>072-077>081-260000-
  SOUTHWEST OHIO

CITY           SKY/WX    TMP DP  RH WIND       PRES   REMARKS
CINC-COVINGTON CLOUDY    45  45 100 E12       29.63S
CINC-LUNKEN    CLOUDY    46  44  93 NE8       29.66F
HAMILTON       CLOUDY    46  43  89 E13       29.67R
DAYTON         CLOUDY    45  41  86 E12       29.68F
WRIGHT-PAT AFB CLOUDY    45  42  91 NE15G21   29.68F
DAYTON GENERAL CLOUDY    44  41  89 E20G26    29.65F
WILMINGTON     LGT RAIN  44  40  85 NE18G24   29.63F
$$

OHZ036-037-039>041-045>050-054>059-063>069-073>076-082>088-260000-
  CENTRAL AND SOUTHEAST OHIO

CITY           SKY/WX    TMP DP  RH WIND       PRES   REMARKS
COLUMBUS       CLOUDY    44  44 100 NE12      29.69F
OSU AIRPORT    CLOUDY    44  40  85 N7        29.72F
BOLTON FIELD   PTSUNNY   45  39  81 N7        29.72F
RICKENBACK AFB NOT AVBL
NEWARK         LGT RAIN  44  42  93 NE14G20   29.66F FOG
MARION         LGT RAIN  44  39  82 NE9       29.74F
LANCASTER      CLOUDY    44  41  89 NE16      29.67F
ZANESVILLE     RAIN      44  41  89 NW5       29.76R FOG
NEW PHILLY     LGT RAIN  52  32  46 S5        29.74R
$$



USA.gov is the U.S. government's official web portal to all federal, state and local government web resources and services.